[[{"header":{"parameterUnit":"m.s-1","parameterCategory":1,"la1":30.2991,"la2":30.254,"lo1":-89.0895,"lo2":-89.0444,"dy":0.0017,"dx":0.0017,"nx":28,"ny":28,"refTime":"2025-05-19T21:00:00:Z","depth":0,"parameterNumber":2,"parameterNumberName":"U-component_of_WINDS"},"data":[0,0,0,0,0,0,0,0,0,0,0,0,0,0,0,0,0,0,0,0,0,0,0,0,0,0,0,0,0,0,0,0,0,0,0,0,0,0,0,0,0,0,0,0,0,0,0,0,0,0,0,0,0,0,0,0,0,0,1.1759,1.1762,0,1.1978,1.198,1.1983,1.2078,1.2078,1.2077,1.2077,1.2307,1.2313,1.232,0,0,0,0,0,0,0,0,0,0,0,0,0,1.143,1.1436,1.1759,1.1762,1.1764,1.1978,1.1981,1.1984,1.2078,1.2078,1.2077,1.2077,1.2305,1.2313,1.232,0,0,0,0,0,0,0,0,0,0,0,0,0,1.1604,1.1438,1.1759,1.1837,1.1846,1.1977,1.1981,1.1984,1.2078,1.2078,1.2077,1.2077,1.2303,1.2312,1.2321,1.2392,0,0,1.2351,1.2355,0,0,0,0,0,0,0,0,1.1594,1.1616,1.1823,1.1832,1.1843,1.2,1.1949,1.2121,1.2078,1.199,1.2077,1.2076,1.2206,1.2223,1.2266,1.2403,1.2413,1.2352,1.2358,1.2362,1.2365,0,0,0,0,0,0,0,1.1582,1.1607,1.1846,1.1826,1.1838,1.1864,1.1888,1.1982,1.2099,1.1998,1.2005,1.203,1.2211,1.2256,1.2272,1.2416,1.2352,1.236,1.2366,1.237,1.2625,1.2626,0,0,0,0,0,0,1.1556,1.1596,1.1839,1.1852,1.1714,1.187,1.1897,1.195,1.2098,1.212,1.203,1.2033,1.224,1.2261,1.228,1.2374,1.2362,1.2371,1.2377,1.2624,1.2625,1.2626,0,0,0,0,0,0,1.1548,1.1576,1.183,1.1726,1.1761,1.1876,1.1935,1.1955,1.2,1.2122,1.2144,1.2054,1.224,1.2267,1.2364,1.2384,1.2375,1.2384,1.2623,1.2624,1.2626,1.2561,0,0,0,0,0,0,1.1538,1.1573,1.1599,1.1726,1.1766,1.1907,1.1936,1.1959,1.2016,1.2022,1.215,1.2171,1.2242,1.2349,1.2373,1.2397,1.2392,1.2622,1.2624,1.2625,1.2562,1.256,1.2559,0,0,0,0,0,1.1526,1.1573,1.16,1.1629,1.18,1.1908,1.1931,1.201,1.2017,1.2045,1.2124,1.2167,1.2377,1.2358,1.2386,1.2413,1.2621,1.2623,1.2625,1.2563,1.256,1.2559,0,0,0,0,0,0,1.1446,1.1591,1.1622,1.1711,1.1796,1.1924,1.1962,1.2004,1.2091,1.2094,1.219,1.2218,1.2307,1.237,1.2346,1.2491,1.2503,1.2511,1.2446,1.2445,1.2443,1.2426,1.24,0,0,0,0,0,1.1439,1.1512,1.1635,1.1702,1.1743,1.1845,1.1895,1.1948,1.2041,1.2078,1.2164,1.2255,1.2342,1.2397,1.2483,1.2572,1.2603,1.2605,1.2603,1.2601,1.2607,1.2661,1.2664,1.2633,1.2633,1.2633,0,0,1.1424,1.1512,1.1553,1.1688,1.176,1.1837,1.1874,1.1953,1.2011,1.2091,1.2187,1.2254,1.2362,1.2455,1.2501,1.251,1.2622,1.2603,1.2601,1.2608,1.2663,1.2666,1.2668,1.2635,1.2635,1.2634,0,0,1.1437,1.151,1.1574,1.1646,1.1755,1.1823,1.1838,1.196,1.2007,1.2105,1.2167,1.2239,1.2386,1.2461,1.2518,1.2561,1.2605,1.2587,1.2578,1.263,1.2632,1.2635,1.2652,1.2657,1.2592,1.2592,1.2592,0,1.1406,1.1521,1.1602,1.1678,1.1737,1.1811,1.1879,1.1945,1.2077,1.2117,1.2126,1.2313,1.2391,1.2504,1.2514,1.2558,1.258,1.2573,1.2625,1.2628,1.2632,1.2649,1.2655,1.259,1.259,1.259,1.259,0,1.1478,1.1557,1.1596,1.1721,1.1784,1.1855,1.195,1.2005,1.2053,1.2121,1.2222,1.2318,1.2426,1.2457,1.2505,1.2578,1.2581,1.2606,1.262,1.263,1.2649,1.2656,1.2585,1.2586,1.2587,1.2588,0,0,1.1445,1.1614,1.1628,1.1686,1.1813,1.1877,1.1953,1.2057,1.2103,1.2192,1.226,1.2384,1.2408,1.2473,1.2531,1.2576,1.2607,1.2597,1.2601,1.2596,1.2695,1.2676,1.2682,1.2637,1.2638,1.264,1.2687,0,1.1475,1.1612,1.1689,1.1795,1.1871,1.1944,1.201,1.2097,1.2163,1.2239,1.2313,1.2399,1.2424,1.2464,1.2512,1.2593,1.2628,1.259,1.2703,1.2706,1.2674,1.2691,1.2671,1.271,1.2694,1.2695,1.2696,0,1.1529,1.1616,1.1728,1.1848,1.1883,1.1941,1.2044,1.2115,1.2216,1.2261,1.2334,1.2392,1.2478,1.2486,1.2607,1.258,1.2631,1.2678,1.2682,1.2696,1.2702,1.2707,1.2725,1.2731,1.2708,1.2707,1.2706,0,1.1495,1.164,1.1727,1.1775,1.1917,1.1956,1.2018,1.2118,1.2176,1.2267,1.2307,1.2407,1.2462,1.254,1.2625,1.2622,1.2739,1.2753,1.2781,1.2779,1.2802,1.2799,1.2829,1.2833,1.2833,1.2833,1.2833,0,1.1521,1.1587,1.1714,1.1767,1.1845,1.1935,1.201,1.2078,1.2166,1.2236,1.2307,1.2371,1.2479,1.2558,1.2625,1.2717,1.2741,1.2782,1.2799,1.2776,1.2771,1.2811,1.2811,1.2835,1.2834,1.2834,1.2834,0,1.1495,1.1583,1.1682,1.1809,1.1843,1.1894,1.2004,1.206,1.213,1.2218,1.2244,1.2355,1.2452,1.2544,1.2674,1.272,1.2812,1.2834,1.2777,1.2786,1.2809,1.2806,1.2866,1.288,1.2873,1.2873,1.2873,0,1.1506,1.1559,1.1692,1.1743,1.1802,1.1884,1.1944,1.2035,1.2095,1.2215,1.2258,1.2359,1.2445,1.2597,1.2691,1.2792,1.2817,1.2832,1.2833,1.2809,1.2819,1.2815,1.2822,1.283,1.2829,1.2829,1.2829,0,1.1517,1.1558,1.1641,1.174,1.1809,1.1892,1.1977,1.2016,1.2124,1.2188,1.2287,1.2354,1.2487,1.2588,1.2699,1.2766,1.2816,1.2827,1.284,1.2817,1.2782,1.2802,1.2772,1.2826,1.2826,1.2826,1.2826,1.2827,1.1512,1.1563,1.1664,1.1755,1.1829,1.1907,1.1966,1.2044,1.2128,1.2241,1.2291,1.2392,1.2495,1.265,1.2716,1.2798,1.2809,1.2826,1.2831,1.2834,1.2829,1.2768,1.2818,1.2818,1.2819,1.2819,1.2819,0,1.1527,1.1596,1.1679,1.1795,1.1868,1.1907,1.2004,1.2063,1.215,1.224,1.2324,1.2439,1.2538,1.264,1.2745,1.2792,1.2818,1.2816,1.2814,1.2829,1.2812,1.2792,1.2794,1.2794,1.2794,1.2794,1.2794,1.2794,1.1543,1.1632,1.1686,1.1814,1.1884,1.1981,1.2033,1.2107,1.218,1.2305,1.2387,1.2452,1.2549,1.2662,1.2756,1.2784,1.282,1.2812,1.2847,1.2829,1.283,1.2831,1.2813,1.2819,1.2819,1.2857,1.2858,1.2858]},{"header":{"parameterUnit":"m.s-1","parameterCategory":1,"la1":30.2991,"la2":30.254,"lo1":-89.0895,"lo2":-89.0444,"dy":0.0017,"dx":0.0017,"nx":28,"ny":28,"refTime":"2025-05-19T21:00:00:Z","depth":0,"parameterNumber":3,"parameterNumberName":"V-component_of_WINDS"},"data":[0,0,0,0,0,0,0,0,0,0,0,0,0,0,0,0,0,0,0,0,0,0,0,0,0,0,0,0,0,0,0,0,0,0,0,0,0,0,0,0,0,0,0,0,0,0,0,0,0,0,0,0,0,0,0,0,0,0,3.0812,3.0812,0,3.0841,3.0841,3.0841,3.0834,3.0833,3.0833,3.0832,3.0859,3.086,3.0861,0,0,0,0,0,0,0,0,0,0,0,0,0,3.0746,3.0747,3.0812,3.0812,3.0812,3.0841,3.0841,3.0842,3.0834,3.0833,3.0833,3.0832,3.0858,3.086,3.0861,0,0,0,0,0,0,0,0,0,0,0,0,0,3.0775,3.0748,3.0812,3.0812,3.0813,3.0841,3.0841,3.0842,3.0834,3.0833,3.0833,3.0832,3.0858,3.0859,3.0861,3.089,0,0,3.0867,3.0868,0,0,0,0,0,0,0,0,3.0773,3.0777,3.0812,3.0812,3.0813,3.0833,3.0828,3.0858,3.0834,3.0826,3.0832,3.0831,3.0851,3.0853,3.086,3.0891,3.0892,3.0867,3.0868,3.0869,3.0869,0,0,0,0,0,0,0,3.0771,3.0776,3.0823,3.0812,3.0813,3.081,3.0813,3.0833,3.0842,3.0827,3.0826,3.083,3.0851,3.0858,3.0861,3.0892,3.0867,3.0869,3.087,3.087,3.0947,3.0947,0,0,0,0,0,0,3.0769,3.0774,3.0822,3.0824,3.0791,3.0812,3.0815,3.0827,3.0842,3.0844,3.0831,3.0829,3.0856,3.0858,3.0862,3.0895,3.0869,3.0871,3.0872,3.0946,3.0947,3.0948,0,0,0,0,0,0,3.0768,3.0774,3.0821,3.0799,3.0805,3.0814,3.0827,3.0828,3.0836,3.0845,3.0847,3.0837,3.0855,3.0859,3.0883,3.0896,3.0871,3.0873,3.0945,3.0946,3.0947,3.0962,0,0,0,0,0,0,3.0766,3.0773,3.0785,3.0799,3.0806,3.0843,3.0828,3.0829,3.084,3.0838,3.0852,3.0853,3.0855,3.088,3.0884,3.0898,3.0875,3.0943,3.0945,3.0947,3.096,3.0964,3.0967,0,0,0,0,0,3.0764,3.0787,3.0785,3.0791,3.0821,3.0843,3.0847,3.085,3.0841,3.0852,3.0858,3.0853,3.0894,3.0882,3.0887,3.0901,3.0943,3.0945,3.0947,3.0959,3.0963,3.0967,0,0,0,0,0,0,3.0772,3.0789,3.0787,3.0816,3.0829,3.0842,3.0856,3.0854,3.0868,3.0866,3.0868,3.0871,3.0895,3.0901,3.0888,3.0929,3.0917,3.092,3.0924,3.0928,3.0931,3.0929,3.0876,0,0,0,0,0,3.0778,3.0796,3.0809,3.0834,3.084,3.0847,3.0857,3.0858,3.087,3.0875,3.0883,3.0894,3.0909,3.0919,3.0934,3.0962,3.0964,3.0974,3.0977,3.0979,3.0982,3.0996,3.1,3.0955,3.0955,3.0955,0,0,3.0789,3.0801,3.0812,3.0836,3.0845,3.0863,3.0851,3.0871,3.0883,3.0878,3.0901,3.0907,3.0919,3.0945,3.0956,3.095,3.0995,3.0982,3.0984,3.0985,3.0998,3.1003,3.1006,3.0956,3.0956,3.0956,0,0,3.0818,3.0829,3.085,3.0861,3.0876,3.0881,3.0886,3.09,3.0904,3.0927,3.0923,3.0938,3.0965,3.0974,3.0982,3.1015,3.101,3.1019,3.1035,3.1049,3.1052,3.1055,3.1066,3.107,3.1022,3.1022,3.1022,0,3.083,3.0857,3.0861,3.0881,3.0891,3.0888,3.0909,3.0918,3.0937,3.0944,3.0937,3.097,3.0979,3.1006,3.1014,3.1021,3.1026,3.1017,3.1052,3.1055,3.1058,3.1068,3.1072,3.1023,3.1023,3.1023,3.1022,0,3.087,3.0889,3.0904,3.0923,3.0935,3.0955,3.0961,3.0973,3.0973,3.0978,3.1001,3.1012,3.1028,3.1035,3.1035,3.1062,3.1058,3.1052,3.1039,3.1063,3.1073,3.1077,3.1024,3.1024,3.1023,3.1023,0,0,3.0904,3.0926,3.0932,3.094,3.0957,3.0971,3.0991,3.1008,3.1017,3.1031,3.1046,3.1069,3.1064,3.1073,3.1074,3.1086,3.111,3.1078,3.1078,3.1083,3.114,3.1144,3.1148,3.1108,3.1109,3.1109,3.1139,0,3.0934,3.0969,3.0974,3.1005,3.1022,3.102,3.1037,3.1048,3.1054,3.1068,3.1073,3.1089,3.1082,3.1087,3.1099,3.1105,3.1122,3.1103,3.1121,3.1122,3.1117,3.1154,3.1158,3.1185,3.1143,3.1143,3.1144,0,3.0973,3.0988,3.1022,3.1036,3.1043,3.1059,3.1075,3.1089,3.1102,3.1105,3.1115,3.1115,3.1134,3.1121,3.1147,3.1134,3.1142,3.1146,3.1147,3.1148,3.1133,3.1154,3.1194,3.1198,3.115,3.1149,3.1149,0,3.0993,3.1022,3.1046,3.1053,3.1071,3.1082,3.109,3.1102,3.1112,3.1126,3.1132,3.1147,3.1156,3.1167,3.117,3.1161,3.1195,3.1183,3.1197,3.1197,3.1204,3.1203,3.1244,3.121,3.121,3.121,3.121,0,3.1025,3.1045,3.1055,3.107,3.1092,3.1096,3.1118,3.1125,3.1136,3.1151,3.115,3.1163,3.1167,3.1181,3.1184,3.1204,3.1208,3.121,3.121,3.121,3.1209,3.1214,3.1212,3.1211,3.1211,3.1211,3.1211,0,3.1051,3.1059,3.1084,3.1099,3.1104,3.1119,3.1132,3.1145,3.1151,3.1169,3.1174,3.1182,3.1199,3.1203,3.1223,3.1225,3.1248,3.1247,3.1244,3.1244,3.1257,3.1256,3.1302,3.1308,3.1271,3.1272,3.1272,0,3.107,3.1086,3.1103,3.1114,3.1122,3.1139,3.115,3.1155,3.1166,3.1182,3.1193,3.121,3.1223,3.1249,3.1256,3.1271,3.127,3.1285,3.1272,3.1271,3.1269,3.1268,3.1269,3.1287,3.1287,3.1288,3.1288,0,3.1104,3.1107,3.1123,3.1141,3.1154,3.1167,3.118,3.1189,3.1195,3.1208,3.1225,3.1236,3.1257,3.1273,3.1288,3.1294,3.1292,3.1292,3.1296,3.1295,3.1293,3.1294,3.125,3.1291,3.1291,3.129,3.129,3.129,3.1126,3.114,3.1155,3.1172,3.1183,3.1195,3.1209,3.1217,3.1232,3.125,3.1252,3.127,3.1282,3.1303,3.131,3.1324,3.132,3.1325,3.1327,3.1328,3.1329,3.1291,3.1327,3.1327,3.1327,3.1327,3.1327,0,3.1159,3.1168,3.1185,3.1204,3.1218,3.1216,3.1231,3.1242,3.1259,3.1271,3.1285,3.1305,3.1321,3.1329,3.1345,3.1354,3.1354,3.1358,3.1357,3.1358,3.1332,3.1327,3.1358,3.1358,3.1358,3.1358,3.1358,3.1358,3.1177,3.12,3.1205,3.1233,3.1242,3.1262,3.127,3.1281,3.1291,3.1314,3.1328,3.1334,3.1344,3.136,3.1375,3.1377,3.1382,3.1387,3.1388,3.1364,3.136,3.1357,3.1352,3.1388,3.1388,3.1413,3.1414,3.1414]}]]